Location: Unspecified
(0.0000°N, 0.0000°E)
Time: 03:09:57
(UTC+00:00)

Amateur Radio Satellites - All Passes

Search period start: 02 April 2015 02:39
Search period end: 03 April 2015 02:39
Location: Unspecified, 0.0000°N, 0.0000°E

Satellite Date Start Highest point End Downlink Frequencies (MHz)
Time Altitude Azimuth
SO-50 02 Apr 02:47:48 02:48:30 10° 64° (ENE) 02:49:36 436.795
RS-15 02 Apr 02:59:26 03:07:00 21° 65° (ENE) 03:15:43 29.354- 29.394
HORYU 2 02 Apr 03:02:10 03:06:36 58° 102° (ESE) 03:11:02 437.375
AO-7 02 Apr 03:04:27 03:11:56 40° 105° (ESE) 03:19:38 29.400- 29.500
AIST 1 02 Apr 03:06:09 03:10:25 48° 274° (W) 03:14:39
Gurwin Techsat 1B 02 Apr 03:29:06 03:31:19 12° 280° (W) 03:33:08 435.225
JAS-2 02 Apr 03:43:32 03:50:18 66° 101° (E) 03:56:18 435.910
MOZHAYETS 4 02 Apr 04:13:37 04:18:10 63° 79° (E) 04:22:43
JUGNU 02 Apr 04:15:09 04:19:01 18° 166° (SSE) 04:22:58 437.505
SO-50 02 Apr 04:24:29 04:29:04 41° 248° (WSW) 04:33:30 436.795
AO-7 02 Apr 04:57:45 05:04:36 28° 284° (WNW) 05:11:12 29.400- 29.500
AUBIESAT-1 02 Apr 05:03:33 05:07:09 65° 75° (ENE) 05:11:03 437.475
CUTE-I 02 Apr 05:05:52 05:09:23 19° 101° (E) 05:13:10 437.470
Cubesat XI-IV 02 Apr 05:07:05 05:10:45 20° 101° (ESE) 05:14:40 437.490
RS-15 02 Apr 05:07:43 05:19:40 70° 248° (WSW) 05:31:51 29.354- 29.394
SRMSAT 02 Apr 05:21:43 05:25:00 15° 168° (SSE) 05:28:23 437.500
PRISM 02 Apr 05:24:38 05:26:33 13° 80° (E) 05:28:44 437.425
GONETS M04 02 Apr 05:30:37 05:38:29 38° 85° (E) 05:46:34
M-CUBED/EXP-1 PRIME 02 Apr 05:31:45 05:35:03 34° 256° (WSW) 05:38:34 437.505
JAS-2 02 Apr 05:34:18 05:35:02 10° 284° (WNW) 05:35:03 435.910
ISS 02 Apr 05:38:28 05:41:12 26° 54° (NE) 05:43:59 145.825
CUSAT 1 02 Apr 05:58:36 06:00:58 12° 87° (E) 06:04:15 437.405
JUGNU 02 Apr 06:02:53 06:08:25 43° 160° (SSE) 06:14:00 437.505
CUBESAT XI-V 02 Apr 06:11:20 06:16:05 87° 259° (WSW) 06:20:47 437.345
BEESAT 3 02 Apr 06:19:16 06:20:53 12° 114° (ESE) 06:22:46 437.485
CUTE-I 02 Apr 06:44:52 06:49:22 28° 281° (WNW) 06:53:45 437.470
Cubesat XI-IV 02 Apr 06:46:20 06:50:45 26° 281° (WNW) 06:55:04 437.490
STRAND 1 02 Apr 06:54:20 06:59:26 59° 258° (WSW) 07:04:29 437.568
PRISM 02 Apr 06:58:31 07:01:56 23° 259° (W) 07:05:13 437.425
DANDE 02 Apr 07:07:47 07:13:50 51° 87° (E) 07:21:32 436.750
SRMSAT 02 Apr 07:09:28 07:14:46 33° 161° (SSE) 07:20:07 437.500
AIST 2 02 Apr 07:20:31 07:23:24 19° 113° (ESE) 07:26:27 435.215
BEESAT 2 02 Apr 07:22:28 07:26:29 89° 270° (W) 07:30:33 435.950
GONETS M04 02 Apr 07:27:56 07:35:13 27° 265° (W) 07:42:08
CUSAT 1 02 Apr 07:36:44 07:43:16 67° 263° (W) 07:51:15 437.405
JUGNU 02 Apr 07:51:38 07:57:30 69° 339° (NNW) 08:03:25 437.505
BEESAT 3 02 Apr 07:55:36 07:58:49 22° 293° (WNW) 08:01:58 437.485
DOVE 4 02 Apr 08:06:28 08:10:49 35° 102° (ESE) 08:15:28 437.250
BRITE-PL 02 Apr 08:09:42 08:14:20 76° 282° (WNW) 08:19:26 437.365/2234.400
CANX-2 02 Apr 08:10:49 08:15:00 54° 101° (E) 08:19:13 2200.000
HO-68 02 Apr 08:19:14 08:26:23 73° 104° (ESE) 08:33:33 435.675
CUTE 1.7 + AOD 2 02 Apr 08:24:02 08:28:19 76° 102° (ESE) 08:32:37 437.475
AAUSAT CUBESAT 2 02 Apr 08:33:20 08:37:24 50° 101° (E) 08:41:30 437.432
GOMX 1 02 Apr 08:36:15 08:40:55 58° 280° (W) 08:45:56 467.674
CUBEBUG 2 02 Apr 08:40:22 08:43:39 20° 101° (E) 08:47:09 437.445
SEEDS 02 Apr 08:47:21 08:51:34 60° 282° (WNW) 08:55:46 437.485
DANDE 02 Apr 08:53:09 08:57:35 17° 257° (WSW) 09:01:58 436.750
CINEMA 3 02 Apr 08:53:37 08:58:21 66° 101° (ESE) 09:03:18 145.822/145.860
SRMSAT 02 Apr 08:58:03 09:04:05 88° 160° (SSE) 09:10:07 437.500
AIST 2 02 Apr 08:59:03 09:01:53 17° 294° (WNW) 09:04:32 435.215
UKube-1 02 Apr 09:02:54 09:04:44 13° 100° (E) 09:06:52 .
COMPASS 1 02 Apr 09:03:48 09:07:50 44° 281° (W) 09:11:52 437.405
DX 1 02 Apr 09:17:03 09:20:26 23° 101° (ESE) 09:23:56 434.975-435.025
UNISAT 6 02 Apr 09:18:11 09:18:41 10° 80° (E) 09:19:33 437.425
DELFI C3 02 Apr 09:23:15 09:27:18 74° 101° (E) 09:31:21 145.870
TIGRISAT 02 Apr 09:25:07 09:27:03 13° 80° (E) 09:29:14 435.000
Oscar 11 02 Apr 09:28:35 09:32:53 66° 282° (WNW) 09:37:12 145.826/435.025
JUGNU 02 Apr 09:41:48 09:46:44 27° 343° (NNW) 09:51:38 437.505
DOVE 4 02 Apr 09:46:23 09:48:35 12° 278° (W) 09:50:27 437.250
FUNcube-1 02 Apr 09:46:56 09:51:29 86° 281° (WNW) 09:56:06 145.935
POPSAT HIP 1 02 Apr 09:50:21 09:52:18 13° 80° (E) 09:54:30 437.405
ANTELSAT 02 Apr 09:55:35 09:59:35 40° 79° (E) 10:03:35 437.575/2403.000
NANOSAT C BR1 02 Apr 09:58:24 10:01:11 18° 80° (E) 10:04:07 145.865
ZACube-1 02 Apr 10:01:32 10:05:58 52° 281° (W) 10:10:27 437.345
UWE-3 02 Apr 10:02:13 10:06:33 39° 281° (W) 10:10:55 435.000/436.395/437.385
CUBEBUG 1 02 Apr 10:03:18 10:04:42 12° 100° (E) 10:06:24 437.445
POLYITAN 1 02 Apr 10:05:52 10:09:13 24° 80° (E) 10:12:39 437.675
HO-68 02 Apr 10:12:19 10:14:06 11° 282° (WNW) 10:15:05 435.675
VELOX 1 02 Apr 10:12:35 10:16:48 48° 101° (E) 10:21:06 145.980
CUBEBUG 2 02 Apr 10:16:37 10:20:12 21° 280° (W) 10:23:41 437.445
AISAT 02 Apr 10:18:56 10:23:18 63° 102° (ESE) 10:27:42 437.250
50 SAT 02 Apr 10:19:23 10:23:24 67° 101° (E) 10:27:27 437.505
HUMSAT D 02 Apr 10:20:07 10:24:25 68° 281° (W) 10:28:44 437.325/437.525
UKube-1 02 Apr 10:37:10 10:40:47 25° 281° (W) 10:44:18 .
DUCHIFAT 1 02 Apr 10:39:08 10:43:22 73° 78° (ENE) 10:47:33 145.980
QB50P1 02 Apr 10:39:42 10:43:57 77° 79° (ENE) 10:48:10 145.935-145.965
SRMSAT 02 Apr 10:47:58 10:53:24 35° 341° (NNW) 10:58:48 437.500
UNISAT 6 02 Apr 10:51:40 10:55:25 29° 259° (W) 10:59:04 437.425
DX 1 02 Apr 10:54:05 10:56:34 14° 280° (W) 10:58:49 434.975-435.025
QB50P2 02 Apr 10:56:04 11:00:16 58° 259° (WSW) 11:04:24 145.880/145.840
TIGRISAT 02 Apr 11:00:17 11:03:43 23° 259° (W) 11:07:01 435.000
BUGSAT 1 02 Apr 11:00:57 11:05:12 79° 259° (WSW) 11:09:22 437.445
ESTCUBE 1 02 Apr 11:02:16 11:06:44 78° 283° (WNW) 11:11:14 437.505/2401.250
TISAT 1 02 Apr 11:06:22 11:08:05 13° 100° (E) 11:10:06 437.305
PHONESAT 2.4 02 Apr 11:22:23 11:24:43 17° 41° (NE) 11:27:10 2401.200-2431.200
POPSAT HIP 1 02 Apr 11:24:38 11:28:05 23° 259° (W) 11:31:23 437.405
SPROUT 02 Apr 11:29:52 11:33:48 37° 101° (E) 11:37:49 437.525
JUGNU 02 Apr 11:33:43 11:36:27 13° 351° (N) 11:39:07 437.505
NANOSAT C BR1 02 Apr 11:34:00 11:36:56 18° 260° (W) 11:39:40 145.865
CUBEBUG 1 02 Apr 11:37:15 11:40:58 28° 281° (W) 11:44:38 437.445
PCSat 02 Apr 11:42:01 11:47:16 53° 110° (ESE) 11:52:32 145.827
POLYITAN 1 02 Apr 11:42:54 11:45:01 13° 260° (W) 11:46:53 437.675
VERMONT LUNAR 02 Apr 11:43:55 11:47:13 53° 223° (SW) 11:50:32 437.305
YUBILEINY 02 Apr 11:49:35 11:57:34 41° 94° (E) 12:05:43 435.215
Oscar 19 02 Apr 12:01:05 12:01:18 10° 80° (E) 12:02:01 437.125/150
SWISSCUBE 02 Apr 12:11:44 12:12:54 11° 100° (E) 12:14:28 437.505
BEESAT 02 Apr 12:14:16 12:15:06 11° 100° (E) 12:16:22 436.000
SRMSAT 02 Apr 12:39:34 12:43:08 16° 348° (NNW) 12:46:37 437.500
TISAT 1 02 Apr 12:40:18 12:43:47 24° 281° (W) 12:47:10 437.305
PHONESAT 2.4 02 Apr 12:59:53 13:02:59 28° 222° (SW) 13:06:05 2401.200-2431.200
ITUPSAT 1 02 Apr 13:00:14 13:04:47 47° 101° (ESE) 13:09:23 437.325
ITAMSAT 1 02 Apr 13:12:27 13:16:10 21° 79° (E) 13:20:05 435.822/435.867
Oscar 19 02 Apr 13:35:44 13:40:37 45° 258° (WSW) 13:45:27 437.125/150
SWISSCUBE 02 Apr 13:46:19 13:50:41 36° 281° (WNW) 13:55:00 437.505
YUBILEINY 02 Apr 13:47:17 13:54:17 25° 275° (W) 14:00:51 435.215
BEESAT 02 Apr 13:48:28 13:52:52 37° 281° (WNW) 13:57:14 436.000
O/OREOS (USA 219) 02 Apr 14:10:37 14:14:46 36° 255° (WSW) 14:18:51 437.305
KKS-1 02 Apr 14:24:28 14:28:56 81° 102° (ESE) 14:33:25 437.445
Gurwin Techsat 1B 02 Apr 14:24:44 14:30:02 68° 258° (WSW) 14:35:18 435.225
RS-15 02 Apr 14:44:39 14:49:25 14° 118° (ESE) 14:55:20 29.354- 29.394
STARS 02 Apr 14:46:21 14:50:46 89° 282° (WNW) 14:55:14 437.465
ITAMSAT 1 02 Apr 14:51:17 14:55:34 25° 258° (WSW) 14:59:41 435.822/435.867
SO-50 02 Apr 14:58:34 15:01:23 17° 114° (ESE) 15:04:25 436.795
AIST 1 02 Apr 15:13:27 15:17:16 32° 265° (W) 15:21:03
JUGNU 02 Apr 15:13:46 15:16:43 14° 10° (N) 15:19:44 437.505
HORYU 2 02 Apr 15:15:10 15:19:36 89° 80° (E) 15:24:01 437.375
JAS-2 02 Apr 15:15:11 15:20:42 34° 76° (ENE) 15:26:57 435.910
AO-7 02 Apr 15:30:18 15:38:32 64° 75° (ENE) 15:46:44 29.400- 29.500
SRMSAT 02 Apr 16:21:37 16:23:40 12° 8° (N) 16:25:48 437.500
MOZHAYETS 4 02 Apr 16:30:33 16:35:08 75° 281° (W) 16:39:44
SO-50 02 Apr 16:38:21 16:41:47 21° 294° (WNW) 16:45:08 436.795
RS-15 02 Apr 16:51:08 17:02:17 79° 292° (WNW) 17:13:08 29.354- 29.394
JAS-2 02 Apr 17:00:58 17:05:46 22° 261° (W) 17:10:39 435.910
JUGNU 02 Apr 17:01:18 17:06:24 29° 18° (NNE) 17:11:31 437.505
AUBIESAT-1 02 Apr 17:05:39 17:10:07 73° 105° (ESE) 17:14:16 437.475
ISS 02 Apr 17:12:21 17:14:29 17° 127° (SE) 17:16:43 145.825
AO-7 02 Apr 17:26:20 17:31:14 16° 256° (WSW) 17:35:26 29.400- 29.500
PRISM 02 Apr 17:28:21 17:30:31 15° 100° (E) 17:32:56 437.425
M-CUBED/EXP-1 PRIME 02 Apr 17:34:15 17:38:27 36° 286° (WNW) 17:42:20 437.505
CUTE-I 02 Apr 17:43:46 17:49:01 56° 78° (ENE) 17:54:17 437.470
Cubesat XI-IV 02 Apr 17:45:16 17:50:33 60° 78° (ENE) 17:55:51 437.490
STRAND 1 02 Apr 17:49:23 17:53:01 21° 101° (E) 17:56:52 437.568
GONETS M04 02 Apr 18:03:34 18:12:13 74° 94° (E) 18:20:53
SRMSAT 02 Apr 18:09:06 18:13:39 23° 16° (NNE) 18:18:15 437.500
BEESAT 3 02 Apr 18:13:59 18:15:59 14° 66° (ENE) 18:18:11 437.485
CUBESAT XI-V 02 Apr 18:30:11 18:34:35 47° 281° (WNW) 18:39:01 437.345
CUSAT 1 02 Apr 18:45:05 18:47:59 20° 102° (ESE) 18:50:29 437.405
ISS 02 Apr 18:48:51 18:50:47 14° 307° (NW) 18:52:35 145.825
JUGNU 02 Apr 18:49:38 18:55:36 76° 21° (NNE) 19:01:34 437.505
BRITE-PL 02 Apr 19:01:41 19:03:51 13° 83° (E) 19:06:18 437.365/2234.400
PRISM 02 Apr 19:02:49 19:05:54 20° 281° (W) 19:08:51 437.425
BEESAT 2 02 Apr 19:18:16 19:22:17 77° 249° (WSW) 19:26:15 435.950
AIST 2 02 Apr 19:19:18 19:22:32 23° 67° (ENE) 19:25:50 435.215
GOMX 1 02 Apr 19:25:11 19:27:41 15° 82° (E) 19:30:23 467.674
STRAND 1 02 Apr 19:28:04 19:32:07 23° 281° (W) 19:36:00 437.568
BEESAT 3 02 Apr 19:50:55 19:53:55 20° 247° (WSW) 19:56:47 437.485
SRMSAT 02 Apr 19:57:18 20:03:07 56° 21° (NNE) 20:08:56 437.500
DANDE 02 Apr 20:01:37 20:05:27 29° 271° (W) 20:08:25 436.750
GONETS M04 02 Apr 20:06:11 20:09:11 11° 277° (W) 20:11:08
HO-68 02 Apr 20:10:57 20:17:58 61° 76° (ENE) 20:25:01 435.675
CANX-2 02 Apr 20:17:46 20:21:58 70° 79° (E) 20:26:10 2200.000
DOVE 4 02 Apr 20:28:07 20:32:44 67° 80° (E) 20:37:03 437.250
CUTE 1.7 + AOD 2 02 Apr 20:30:58 20:35:11 84° 259° (W) 20:39:24 437.475
BRITE-PL 02 Apr 20:37:46 20:42:24 33° 258° (WSW) 20:46:38 437.365/2234.400
AAUSAT CUBESAT 2 02 Apr 20:37:58 20:42:04 60° 79° (E) 20:46:09 437.432
JUGNU 02 Apr 20:39:10 20:44:43 39° 200° (SSW) 20:50:13 437.505
UWE-3 02 Apr 20:40:31 20:41:59 12° 81° (E) 20:43:43 435.000/436.395/437.385
CUBEBUG 2 02 Apr 20:53:21 20:56:47 25° 80° (E) 21:00:17 437.445
SEEDS 02 Apr 20:53:31 20:57:34 48° 259° (W) 21:01:37 437.485
AIST 2 02 Apr 20:59:00 21:01:00 13° 246° (WSW) 21:02:45 435.215
GOMX 1 02 Apr 21:01:42 21:05:48 26° 258° (WSW) 21:09:32 467.674
COMPASS 1 02 Apr 21:09:07 21:12:58 36° 259° (W) 21:16:48 437.405
UKube-1 02 Apr 21:11:11 21:14:00 18° 79° (E) 21:16:59 .
CINEMA 3 02 Apr 21:11:17 21:15:40 71° 259° (WSW) 21:19:50 145.822/145.860
DELFI C3 02 Apr 21:24:23 21:28:26 77° 79° (E) 21:32:29 145.870
DX 1 02 Apr 21:26:35 21:30:29 32° 79° (ENE) 21:34:23 434.975-435.025
UNISAT 6 02 Apr 21:29:10 21:32:24 19° 101° (E) 21:35:50 437.425
TIGRISAT 02 Apr 21:36:48 21:40:27 23° 101° (E) 21:44:16 435.000
Oscar 11 02 Apr 21:37:43 21:41:53 47° 259° (W) 21:46:00 145.826/435.025
SRMSAT 02 Apr 21:46:35 21:52:21 52° 201° (SSW) 21:58:06 437.500
POPSAT HIP 1 02 Apr 21:56:21 21:59:01 17° 100° (E) 22:01:54 437.405
FUNcube-1 02 Apr 21:57:39 22:01:47 59° 259° (W) 22:05:51 145.935
HO-68 02 Apr 22:02:07 22:05:39 13° 257° (WSW) 22:08:33 435.675
NANOSAT C BR1 02 Apr 22:04:24 22:07:39 22° 101° (E) 22:11:03 145.865
ANTELSAT 02 Apr 22:08:34 22:13:14 67° 101° (E) 22:17:56 437.575/2403.000
POLYITAN 1 02 Apr 22:12:29 22:16:12 30° 101° (E) 22:20:01 437.675
CUBEBUG 1 02 Apr 22:12:35 22:15:24 17° 80° (E) 22:18:23 437.445
ZACube-1 02 Apr 22:12:41 22:16:30 34° 259° (W) 22:20:14 437.345
UWE-3 02 Apr 22:14:59 22:18:27 24° 259° (W) 22:21:46 435.000/436.395/437.385
50 SAT 02 Apr 22:18:43 22:22:35 64° 79° (E) 22:26:26 437.505
VELOX 1 02 Apr 22:24:43 22:29:11 74° 78° (ENE) 22:33:37 145.980
HUMSAT D 02 Apr 22:26:15 22:30:16 53° 259° (W) 22:34:15 437.325/437.525
JUGNU 02 Apr 22:30:23 22:34:11 17° 194° (SSW) 22:37:54 437.505
AISAT 02 Apr 22:31:27 22:35:57 85° 258° (WSW) 22:40:23 437.250
CUBEBUG 2 02 Apr 22:31:47 22:33:23 12° 260° (W) 22:34:40 437.445
PCSat 02 Apr 22:39:20 22:40:04 10° 67° (ENE) 22:41:18 145.827
DUCHIFAT 1 02 Apr 22:45:22 22:49:36 89° 286° (WNW) 22:53:54 145.980
QB50P1 02 Apr 22:46:18 22:50:33 84° 281° (WNW) 22:54:50 145.935-145.965
UKube-1 02 Apr 22:46:51 22:50:02 19° 259° (W) 22:53:02 .
QB50P2 02 Apr 23:02:59 23:07:05 45° 281° (W) 23:11:11 145.880/145.840
PHONESAT 2.4 02 Apr 23:03:06 23:05:08 15° 139° (SE) 23:07:18 2401.200-2431.200
BUGSAT 1 02 Apr 23:04:40 23:08:43 69° 281° (WNW) 23:12:49 437.445
UNISAT 6 02 Apr 23:05:24 23:09:03 22° 280° (W) 23:12:34 437.425
DX 1 02 Apr 23:05:41 23:06:37 10° 260° (W) 23:07:11 434.975-435.025
TISAT 1 02 Apr 23:11:57 23:14:24 16° 80° (E) 23:17:03 437.305
TIGRISAT 02 Apr 23:13:52 23:17:05 18° 280° (W) 23:20:05 435.000
ESTCUBE 1 02 Apr 23:16:52 23:21:16 48° 259° (WSW) 23:25:38 437.505/2401.250
VERMONT LUNAR 02 Apr 23:19:35 23:22:59 75° 317° (NW) 23:26:20 437.305
POPSAT HIP 1 02 Apr 23:31:41 23:34:47 19° 280° (W) 23:37:46 437.405
SRMSAT 02 Apr 23:37:24 23:41:50 21° 196° (SSW) 23:46:12 437.500
SPROUT 02 Apr 23:38:04 23:42:14 49° 79° (E) 23:46:24 437.525
NANOSAT C BR1 02 Apr 23:40:58 23:43:24 14° 280° (W) 23:45:36 145.865
CUBEBUG 1 02 Apr 23:48:17 23:51:39 20° 259° (W) 23:54:51 437.445
POLYITAN 1 02 Apr 23:51:03 23:52:03 10° 279° (W) 23:52:42 437.675
PCSat 03 Apr 00:18:18 00:23:30 48° 250° (WSW) 00:28:40 145.827
YUBILEINY 03 Apr 00:22:27 00:31:12 79° 87° (E) 00:39:55 435.215
Oscar 19 03 Apr 00:30:48 00:35:08 28° 101° (ESE) 00:39:36 437.125/150
SWISSCUBE 03 Apr 00:31:39 00:35:17 23° 79° (E) 00:39:05 437.505
BEESAT 03 Apr 00:33:51 00:37:24 22° 79° (E) 00:41:06 436.000
PHONESAT 2.4 03 Apr 00:40:11 00:43:26 32° 318° (NW) 00:46:38 2401.200-2431.200
O/OREOS (USA 219) 03 Apr 00:43:46 00:46:29 16° 107° (ESE) 00:49:25 437.305
TISAT 1 03 Apr 00:46:53 00:50:06 20° 259° (W) 00:53:08 437.305
ITUPSAT 1 03 Apr 01:22:33 01:27:22 86° 258° (WSW) 01:32:12 437.325
Gurwin Techsat 1B 03 Apr 01:24:44 01:28:42 22° 101° (E) 01:32:51 435.225
SRMSAT 03 Apr 01:30:03 01:31:51 11° 187° (S) 01:33:34 437.500
AIST 1 03 Apr 01:44:47 01:46:42 13° 96° (E) 01:48:55
ITAMSAT 1 03 Apr 01:46:13 01:51:13 54° 102° (ESE) 01:56:17 435.822/435.867
SWISSCUBE 03 Apr 02:09:36 02:13:02 19° 259° (W) 02:16:16 437.505
AO-7 03 Apr 02:10:41 02:12:01 11° 104° (ESE) 02:14:20 29.400- 29.500
Oscar 19 03 Apr 02:10:50 02:14:23 18° 281° (W) 02:17:40 437.125/150
BEESAT 03 Apr 02:11:36 02:15:07 20° 259° (W) 02:18:27 436.000
JUGNU 03 Apr 02:13:05 02:14:19 11° 174° (S) 02:15:36 437.505
O/OREOS (USA 219) 03 Apr 02:22:11 02:25:48 22° 286° (WNW) 02:29:16 437.305
YUBILEINY 03 Apr 02:26:48 02:28:11 10° 263° (W) 02:28:24 435.215
RS-15 03 Apr 02:27:05 02:30:33 12° 62° (ENE) 02:35:41 29.354- 29.394
